Regional Weather Roundup
Issued by NWS Cleveland, OH

Home | Current Version | Previous Version | Text Only | Print | Product List | Glossary Off
Versions: 1 2 3 4 5 6 7 8 9 10 11 12 13 14 15 16 17 18 19 20 21 22 23 24 25 26 27 28 29 30 31 32 33 34 35 36 37 38 39 40 41 42 43 44 45 46 47 48 49 50

000
ASUS41 KCLE 172310
RWRCLE
OHIO REGIONAL WEATHER ROUNDUP
NATIONAL WEATHER SERVICE CLEVELAND, OH
600 PM EST WED JAN 17 2018

NOTE: "FAIR" INDICATES FEW OR NO CLOUDS BELOW 12,000 FEET WITH NO
SIGNIFICANT WEATHER AND/OR OBSTRUCTIONS TO VISIBILITY.

OHZ001>008-015>018-024>027-034-035-043-044-180000-
   NORTHWEST OHIO

CITY           SKY/WX    TMP DP  RH WIND       PRES   REMARKS
DEFIANCE       FAIR      17   8  67 SW9       30.39F WCI   6
FINDLAY        FAIR      17   7  64 SW12      30.39F WCI   4
TOLEDO EXPRESS FAIR      17  11  77 SW10      30.36F WCI   5
TOLEDO EXEC    FAIR      16   9  74 SW15      30.38F WCI   1
LIMA           FAIR      15   8  73 SW13      30.41F WCI   1
$$

OHZ009>014-019>023-028>033-038-089-180000-
   NORTHEAST OHIO

CITY           SKY/WX    TMP DP  RH WIND       PRES   REMARKS
CLE-HOPKINS    FAIR      18  10  71 SW13      30.39F WCI   5
CLE-LAKEFRONT  FAIR      19   9  65 S15       30.36F WCI   5
CUY CO. ARPT   CLEAR     19   9  63 SW15      30.35F WCI   5
LORAIN-ELYRIA  FAIR      14   5  67 SW15      30.37F WCI  -1
ASHTABULA      FAIR      16   9  74 SW10      30.33S WCI   4
AKRON-CANTON   FAIR      10   2  69 S12       30.36F WCI  -5
WOOSTER        MIX PCPN  13   6  74 SW9       30.37F WCI   1
MANSFIELD      FAIR      13   7  77 SW12      30.36F WCI  -1
YOUNGSTOWN     FAIR      11   4  73 SW8       30.33F WCI  -1
$$

OHZ042-051>053-060>062-070>072-077>081-180000-
  SOUTHWEST OHIO

CITY           SKY/WX    TMP DP  RH WIND       PRES   REMARKS
CINC-COVINGTON FAIR      17  10  74 SW6       30.49F WCI   9
CINC-LUNKEN    FAIR      18  10  71 SW9       30.54F WCI   7
HAMILTON       FAIR      18  10  71 SW5       30.52F WCI  11
DAYTON         FAIR      13   8  81 SW10      30.46F WCI   0
WRIGHT-PAT AFB CLEAR     16   4  60 SW7       30.47S WCI   6
DAYTON GENERAL FAIR      18   8  65 W6        30.47S WCI  10
WILMINGTON     FAIR      14   8  77 W8        30.46F WCI   3
$$

OHZ036-037-039>041-045>050-054>059-063>069-073>076-082>088-180000-
  CENTRAL AND SOUTHEAST OHIO

CITY           SKY/WX    TMP DP  RH WIND       PRES   REMARKS
COLUMBUS       FAIR      12   6  77 SW7       30.46F WCI   1
OSU AIRPORT    FAIR      12   6  77 S7        30.45F WCI   1
BOLTON FIELD   CLEAR      9   3  78 SW5       30.46F WCI   0
RICKENBACK AFB FAIR       8   3  82 S3        30.48S
NEWARK         FAIR       8   3  80 SW5       30.45F WCI   0
MARION         FAIR      13   6  74 S9        30.41F WCI   1
LANCASTER      FAIR       3   0  87 CALM      30.47F
ZANESVILLE     FAIR      11   3  70 SW3       30.45F
NEW PHILLY     NOT AVBL
$$




USA.gov is the U.S. government's official web portal to all federal, state and local government web resources and services.